Location: Gollag?dem
(16.8053°N, 80.8024°E)
Time: 18:15:35
(UTC+00:00)

COSMOS 2455 - Pass Details

Date: 13 August 2020
Orbit: 898 x 911 km, 67.1° (Epoch: 18 September)

Event Time Altitude Azimuth Distance (km) Brightness Sun altitude
Rises 23:30:29 0° 184° (S) 3,506 5.7 -12.2°
Reaches altitude 10° 23:33:06 10° 178° (S) 2,569 5.0 -11.6°
Maximum altitude 23:38:42 43° 108° (ESE) 1,249 4.1 -10.4°
Drops below altitude 10° 23:44:18 10° 38° (NE) 2,581 6.2 -9.1°
Sets 23:46:55 0° 32° (NNE) 3,526 6.8 -8.5°
